Probability
0 0 0 0 0 0 0 0 0 0 0 0 10 26 35 42 55 74 81 81 81 77 71 65 68 68 71 74 84 87 90 90 94 97 94 94 84 87 94 87 84 77 68 61
0 0 0 0 0 0 0 0 0 0 0 0 6 23 35 42 48 52 61 74 74 68 71 61 58 58 58 65 71 71 71 74 74 81 87 87 81 81 77 74 77 71 65 65
0 0 0 0 0 0 0 0 0 0 0 0 10 19 29 29 42 45 65 68 55 55 61 48 52 52 42 45 48 45 68 71 71 68 71 68 68 71 71 61 68 65 58 48
0 0 0 0 0 0 0 0 0 0 0 0 0 0 39 19 32 42 55 48 55 45 42 42 35 39 35 32 32 42 52 58 58 58 58 55 48 45 48 48 52 52 48 45
0 0 0 0 0 0 0 0 0 0 0 0 0 0 13 16 23 39 42 35 42 32 32 32 29 29 23 19 19 32 45 55 55 61 55 55 52 42 39 35 42 39 39 35
0 0 0 0 0 0 0 0 0 0 0 0 0 0 0 10 13 19 35 29 26 26 23 26 23 19 23 19 13 19 45 55 55 55 55 48 48 35 32 29 32 39 32 23
0 0 0 0 0 0 0 0 0 0 0 0 0 0 10 19 16 19 23 26 19 19 16 10 13 13 6 10 13 16 23 45 52 45 45 39 45 42 32 23 19 26 13 10
0 0 0 0 0 0 0 0 0 0 0 0 0 6 16 13 16 19 23 19 16 16 10 10 10 6 10 13 19 16 19 32 26 29 29 26 26 16 13 19 13 6 6 3
0 0 0 0 0 0 0 0 0 0 0 0 0 13 13 16 13 16 16 13 13 6 6 3 3 3 3 6 13 13 16 16 19 26 19 23 19 16 13 16 13 6 3 3
0 0 0 0 0 0 0 0 0 0 3 0 0 3 6 10 6 6 3 3 3 3 0 0 0 0 0 3 10 10 13 16 19 16 23 6 3 6 10 16 10 13 16 10
0 0 0 0 0 0 0 0 0 0 0 0 0 0 0 3 3 3 3 3 3 0 0 0 0 0 0 0 0 0 3 3 3 3 10 13 6 6 13 10 13 13 10 3
0 0 0 0 0 0 0 0 0 0 0 0 0 0 0 3 3 3 0 0 0 0 0 0 0 0 0 0 0 0 0 0 0 0 0 3 3 6 3 0 0 3 3 0
0 3 0 0 0 0 0 0 0 0 0 0 0 0 0 0 0 0 0 0 0 0 0 0 0 0 0 0 0 0 0 0 0 0 0 0 6 6 3 0 0 3 3 0
0 6 0 0 0 0 0 0 0 0 0 0 0 0 0 0 0 0 0 0 0 0 0 0 0 0 0 0 0 0 0 0 0 0 0 0 0 0 0 0 0 0 0 0
0 3 0 0 0 0 0 0 0 0 0 0 0 0 0 0 0 0 0 0 0 0 0 0 0 0 0 0 0 0 0 0 0 0 0 0 0 0 0 0 0 0 0 0
0 0 3 0 0 0 0 0 0 0 0 0 0 0 0 0 0 0 0 0 0 0 0 0 0 0 0 0 0 0 0 0 0 0 0 0 0 0 0 0 0 0 0 0
0 32 19 3 0 0 0 0 0 0 0 0 0 0 0 0 0 0 0 0 0 0 0 0 0 0 0 0 0 0 0 0 0 0 0 0 0 0 0 0 0 0 0 0
6 23 65 0 3 0 0 0 0 0 0 0 0 0 0 0 0 0 0 0 0 0 0 0 0 0 0 0 0 0 0 0 0 0 0 0 0 0 0 0 0 0 0 0
0 0 0 3 0 0 0 0 0 0 0 0 0 0 0 0 0 0 0 0 0 0 0 0 0 0 0 0 0 0 0 0 0 0 0 0 0 0 0 0 0 0 0 0
0 6 0 0 0 0 0 0 0 0 0 0 0 0 0 0 0 0 0 0 0 0 0 0 0 0 0 0 0 0 0 0 0 0 0 0 0 0 0 0 0 0 0 0
3 3 0 10 0 0 0 0 0 0 0 0 0 0 0 0 0 0 0 0 0 0 0 0 0 0 0 0 0 0 0 0 0 0 0 0 0 0 0 0 0 0 0 0
0 0 3 0 0 0 0 0 0 0 0 0 0 0 0 0 0 0 0 0 0 0 0 0 0 0 0 0 0 0 0 0 0 0 0 0 0 0 0 0 0 0 0 0
0 0 3 0 0 3 0 0 0 0 0 0 0 0 0 0 0 0 0 0 0 0 0 0 0 0 0 0 0 0 0 0 0 0 0 0 0 0 0 0 0 0 0 0
0 0 0 0 0 0 0 0 0 0 0 0 0 0 0 0 0 0 0 0 0 0 0 0 0 0 0 0 0 0 0 0 0 0 0 0 0 0 0 0 0 0 0 0
0 0 0 0 0 0 0 0 0 0 0 0 0 0 0 0 0 0 0 0 0 0 0 0 0 0 0 0 0 0 0 0 0 0 0 0 0 0 0 0 0 0 0 0
0 0 0 0 0 0 0 0 0 0 0 0 0 0 0 0 0 0 0 0 0 0 0 0 0 0 0 0 0 0 0 0 0 0 0 0 0 0 0 0 0 0 0 0
Height
5857 5859 5860 5862 5864 5867 5868 5869 5869 5870 5869 5868 5866 5863 5860 5858 5857 5855 5854 5853 5853 5852 5851 5849 5848 5847 5846 5844 5843 5841 5839 5837 5834 5832 5830 5827 5825 5823 5820 5819 5817 5815 5814 5812
5858 5859 5859 5860 5862 5864 5866 5867 5867 5867 5866 5864 5861 5859 5856 5853 5852 5851 5850 5849 5848 5847 5846 5844 5843 5841 5840 5838 5836 5834 5831 5829 5826 5824 5821 5818 5816 5814 5812 5810 5808 5806 5804 5803
5856 5858 5859 5860 5862 5863 5863 5863 5863 5863 5862 5861 5859 5854 5850 5848 5846 5845 5845 5845 5844 5842 5840 5839 5837 5835 5833 5831 5829 5826 5823 5821 5818 5815 5813 5810 5807 5805 5803 5801 5799 5797 5795 5794
5855 5856 5858 5859 5860 5860 5860 5860 5860 5860 5859 5857 5855 5849 5842 5836 5836 5839 5841 5841 5840 5838 5836 5834 5831 5829 5826 5824 5821 5818 5815 5812 5809 5806 5803 5801 5798 5795 5793 5790 5789 5787 5786 5785
5855 5855 5856 5858 5858 5857 5858 5857 5857 5856 5854 5852 5848 5845 5838 5833 5835 5837 5837 5836 5835 5833 5831 5828 5825 5822 5819 5816 5813 5810 5807 5803 5800 5796 5793 5790 5787 5784 5782 5779 5778 5777 5775 5774
5853 5853 5854 5855 5855 5855 5855 5855 5854 5852 5848 5845 5842 5839 5834 5833 5834 5834 5833 5832 5830 5828 5825 5822 5819 5815 5812 5808 5804 5801 5797 5794 5790 5786 5782 5779 5776 5773 5770 5768 5766 5765 5763 5762
5849 5849 5851 5854 5854 5854 5854 5854 5852 5848 5844 5840 5837 5835 5831 5830 5833 5831 5830 5828 5826 5823 5820 5816 5812 5808 5804 5800 5795 5791 5787 5783 5779 5775 5771 5768 5764 5761 5758 5756 5754 5752 5751 5749
5848 5848 5850 5852 5853 5852 5852 5852 5851 5847 5844 5840 5835 5832 5830 5830 5831 5830 5828 5826 5822 5818 5814 5809 5805 5800 5796 5791 5786 5781 5777 5772 5768 5764 5760 5756 5752 5749 5746 5744 5741 5739 5737 5736
5850 5851 5852 5852 5852 5852 5851 5851 5850 5848 5845 5842 5836 5833 5831 5831 5831 5829 5826 5822 5818 5813 5808 5803 5798 5792 5787 5782 5776 5771 5766 5762 5757 5753 5749 5745 5741 5737 5734 5731 5728 5725 5723 5721
5854 5853 5852 5852 5852 5851 5851 5849 5848 5846 5845 5844 5839 5835 5833 5830 5829 5827 5822 5818 5813 5808 5802 5796 5790 5784 5779 5773 5767 5761 5756 5751 5746 5742 5737 5733 5729 5725 5721 5718 5715 5712 5709 5706
5855 5854 5853 5851 5850 5850 5849 5848 5846 5845 5843 5843 5841 5837 5832 5829 5827 5823 5819 5813 5808 5802 5796 5790 5784 5777 5770 5764 5758 5752 5747 5741 5736 5731 5726 5721 5717 5712 5708 5704 5700 5697 5693 5690
5853 5853 5850 5847 5847 5848 5848 5846 5845 5844 5842 5841 5841 5837 5830 5826 5824 5819 5814 5809 5803 5797 5790 5784 5777 5770 5763 5756 5750 5744 5738 5732 5726 5720 5714 5708 5703 5698 5693 5688 5684 5680 5676 5673
5853 5852 5851 5846 5846 5847 5847 5845 5844 5843 5841 5840 5839 5837 5828 5824 5821 5816 5811 5805 5798 5791 5784 5777 5770 5763 5755 5749 5742 5736 5729 5722 5715 5708 5702 5696 5689 5684 5678 5672 5667 5662 5658 5655
5851 5851 5851 5851 5849 5848 5847 5845 5843 5841 5840 5838 5835 5832 5826 5822 5818 5812 5806 5800 5792 5785 5777 5770 5763 5756 5748 5742 5735 5728 5720 5712 5705 5697 5690 5683 5676 5669 5662 5656 5650 5644 5639 5636
5851 5850 5850 5849 5849 5848 5847 5844 5842 5840 5837 5835 5832 5828 5822 5818 5813 5807 5801 5794 5787 5779 5772 5764 5756 5748 5741 5734 5726 5719 5711 5703 5694 5686 5678 5671 5663 5655 5647 5639 5632 5626 5620 5616
5849 5849 5848 5847 5846 5846 5844 5842 5840 5837 5835 5832 5829 5825 5819 5814 5808 5803 5797 5789 5782 5774 5766 5757 5749 5741 5734 5726 5718 5710 5701 5693 5684 5676 5667 5658 5649 5640 5632 5623 5616 5609 5603 5599
5848 5847 5847 5845 5845 5844 5842 5840 5838 5835 5832 5829 5825 5821 5816 5810 5804 5797 5791 5784 5776 5767 5759 5751 5742 5734 5726 5718 5709 5701 5692 5683 5674 5665 5656 5646 5637 5627 5618 5609 5602 5595 5589 5584
5847 5846 5845 5844 5844 5842 5841 5838 5835 5832 5829 5825 5821 5817 5812 5806 5798 5791 5785 5777 5769 5761 5753 5745 5736 5728 5719 5710 5701 5692 5683 5674 5665 5655 5645 5635 5625 5615 5606 5598 5590 5583 5577 5572
5846 5845 5843 5842 5842 5841 5836 5834 5832 5829 5825 5822 5818 5813 5808 5802 5796 5787 5780 5772 5764 5755 5747 5738 5730 5721 5712 5703 5694 5684 5675 5665 5656 5646 5636 5625 5615 5605 5596 5588 5580 5573 5567 5562
5844 5843 5842 5840 5839 5838 5834 5831 5828 5826 5821 5818 5813 5808 5803 5798 5792 5785 5777 5768 5759 5750 5741 5732 5723 5714 5705 5696 5686 5677 5667 5658 5648 5638 5627 5616 5606 5597 5587 5579 5571 5564 5558 5553
5842 5840 5839 5838 5837 5835 5830 5828 5826 5823 5819 5814 5809 5805 5799 5793 5787 5780 5771 5763 5754 5745 5735 5726 5717 5707 5698 5689 5680 5670 5661 5651 5640 5630 5619 5609 5599 5590 5581 5572 5565 5558 5552 5546
5841 5839 5837 5835 5833 5832 5827 5824 5822 5819 5814 5810 5806 5801 5795 5789 5782 5774 5766 5758 5749 5740 5730 5721 5711 5702 5692 5683 5674 5664 5654 5644 5634 5623 5613 5603 5594 5584 5575 5567 5560 5553 5547 5541
5838 5836 5834 5832 5831 5827 5823 5820 5817 5814 5810 5806 5801 5796 5790 5784 5777 5770 5762 5753 5744 5735 5725 5715 5706 5696 5686 5677 5668 5658 5648 5638 5628 5618 5608 5598 5589 5579 5571 5563 5556 5550 5543 5538
5833 5831 5830 5827 5824 5821 5819 5815 5812 5809 5805 5801 5797 5791 5786 5779 5772 5765 5757 5748 5739 5730 5720 5710 5701 5691 5681 5672 5662 5652 5643 5633 5623 5613 5603 5594 5585 5576 5568 5560 5553 5547 5541 5535
5830 5827 5825 5822 5820 5817 5814 5811 5808 5804 5801 5796 5792 5787 5781 5775 5768 5760 5752 5744 5734 5725 5715 5706 5696 5686 5677 5667 5657 5648 5638 5629 5619 5610 5600 5591 5583 5574 5566 5559 5552 5545 5539 5534
5825 5823 5820 5818 5815 5813 5810 5807 5803 5800 5796 5792 5787 5782 5776 5770 5763 5755 5747 5739 5730 5721 5711 5701 5692 5682 5672 5663 5653 5644 5634 5625 5616 5607 5598 5590 5581 5573 5565 5558 5551 5545 5539 5533
Wind_Speed
6 6 5 5 7 10 10 9 11 12 16 18 19 20 21 21 21 21 21 21 22 22 24 25 27 29 30 32 34 35 37 39 41 41 43 44 43 43 43 44 43 42 40 40
5 5 5 5 8 10 11 11 12 13 16 19 18 19 21 20 19 18 19 20 21 22 24 25 27 29 30 32 34 36 38 39 41 42 43 43 42 41 41 42 42 41 40 40
7 5 5 6 7 8 9 11 13 14 16 17 17 21 22 23 19 15 15 18 19 21 22 23 25 27 29 31 33 35 37 38 39 40 40 40 40 40 40 41 40 39 40 40
6 4 4 5 8 9 11 12 12 13 15 16 19 24 27 23 13 10 13 18 20 22 23 25 27 28 30 32 34 34 36 38 39 40 41 41 41 41 42 42 41 41 41 41
5 3 5 7 10 10 10 11 13 14 16 19 21 26 26 19 14 16 19 22 23 24 25 26 28 29 31 32 34 34 36 38 39 41 42 42 43 43 44 44 43 43 43 42
6 6 5 7 8 9 9 10 12 16 19 21 20 21 19 15 18 20 23 24 25 26 27 29 30 31 33 34 36 37 38 38 40 41 42 43 44 44 44 44 44 43 43 43
6 6 6 4 5 9 8 9 14 18 19 20 14 13 12 11 18 22 25 27 28 29 30 31 33 34 35 37 37 38 40 40 41 42 42 43 43 44 44 44 44 44 44 44
8 5 3 3 6 9 7 8 14 17 18 19 15 11 15 18 20 24 26 29 30 31 33 34 36 37 38 39 39 40 41 41 41 41 41 41 42 42 42 43 44 44 44 45
12 10 7 7 8 8 8 8 10 13 14 15 18 18 18 20 23 26 28 30 32 33 35 36 38 39 40 41 41 41 41 41 41 41 41 41 42 43 44 45 45 46 47 47
10 9 7 8 7 8 8 9 9 9 11 12 19 23 21 24 26 27 29 31 33 35 37 38 39 40 41 41 41 41 41 41 41 41 41 42 43 44 46 46 47 48 50 51
7 6 5 4 5 7 9 10 10 9 10 9 15 23 25 27 28 29 31 33 35 37 38 39 40 41 41 41 40 40 41 41 41 42 43 44 45 46 47 48 49 50 51 52
7 6 8 9 6 4 7 10 10 10 10 9 11 21 25 28 29 31 33 35 37 38 38 39 40 41 41 40 40 40 41 42 43 45 46 46 47 48 49 50 51 51 52 52
7 7 9 14 8 7 9 11 11 10 10 10 11 18 25 28 29 31 33 35 37 38 39 40 40 40 39 39 39 40 42 44 45 46 47 47 48 49 50 50 51 52 52 51
8 7 6 10 11 10 11 12 12 12 11 12 15 20 25 27 29 31 33 35 38 39 40 40 40 40 39 39 40 41 43 45 46 46 47 47 48 49 50 51 52 52 52 51
8 7 6 6 8 8 11 12 12 13 14 15 17 21 26 28 31 32 34 36 38 39 39 40 41 41 40 40 42 43 45 46 46 46 46 47 49 50 51 51 51 50 50 49
8 7 7 6 9 9 12 14 15 16 17 18 20 23 26 29 31 33 35 37 38 39 40 41 42 41 41 42 43 44 45 46 45 46 47 48 49 50 50 49 47 46 45 44
9 8 7 5 9 12 14 15 18 19 20 21 22 24 26 29 32 34 36 38 39 41 41 42 42 42 42 43 44 45 45 45 45 46 47 48 49 48 47 45 43 42 40 39
10 9 8 6 9 14 16 17 19 20 22 22 23 25 27 30 34 37 38 40 42 42 42 43 43 43 43 44 45 45 45 45 45 46 47 48 47 46 43 41 40 38 36 35
11 11 10 8 7 13 19 18 19 21 23 22 23 25 28 30 33 37 40 42 43 43 43 44 44 44 44 45 45 45 45 45 46 47 47 46 45 43 41 39 37 35 33 32
14 13 11 10 10 13 19 19 20 23 24 23 25 27 29 31 33 36 39 41 43 43 44 44 45 45 45 45 45 45 45 46 46 46 46 44 43 42 39 37 35 32 30 29
16 14 13 14 13 17 20 21 22 23 25 26 27 28 30 33 35 38 40 42 44 44 45 45 45 45 45 45 44 44 45 46 46 45 43 42 42 40 37 35 33 30 28 26
16 15 16 16 17 20 21 24 23 23 24 25 27 28 31 33 36 38 41 43 44 45 45 45 46 45 45 45 44 44 44 45 45 44 42 41 40 38 35 33 30 29 27 24
17 18 18 19 21 22 23 24 23 23 24 25 27 29 31 34 37 39 41 43 45 46 46 46 46 45 44 44 44 44 44 44 44 43 41 39 38 36 34 31 29 27 25 23
20 20 19 20 21 22 22 22 22 23 24 26 28 30 32 35 37 40 42 43 45 46 46 46 46 45 44 43 44 44 43 43 43 42 39 37 36 34 32 31 28 27 25 22
20 22 21 21 21 22 22 22 22 24 25 27 28 30 33 35 38 40 42 44 45 46 47 47 46 45 44 43 43 43 42 42 41 40 38 36 35 33 32 30 28 26 24 22
19 21 22 22 22 22 23 23 23 24 26 27 29 31 34 36 39 41 43 45 46 46 47 46 45 44 43 43 42 42 41 40 39 37 36 35 34 33 31 29 27 25 23 22
Wind_Direction
271 267 263 250 255 259 262 257 249 248 259 273 276 275 275 280 284 287 288 289 287 284 282 281 280 280 280 280 280 282 283 283 284 285 286 287 288 287 287 287 286 287 288 288
271 279 292 263 252 252 254 259 260 262 269 275 277 276 277 277 281 286 293 295 293 289 286 284 283 283 282 281 281 282 283 284 284 286 286 286 287 287 287 287 287 285 285 285
279 263 259 256 260 259 255 251 251 255 266 276 282 275 273 274 277 280 296 303 302 298 293 290 289 287 286 286 286 285 285 285 285 286 287 288 288 288 288 287 287 286 285 283
276 281 287 275 263 257 264 258 261 263 267 269 271 272 271 267 268 290 309 312 308 304 300 297 295 293 291 290 290 289 288 287 287 287 288 289 289 288 288 287 286 286 286 284
260 261 282 274 271 267 274 271 270 270 264 262 263 266 273 283 313 321 325 320 314 310 306 303 302 300 298 296 295 293 292 291 290 290 290 290 289 288 288 287 286 285 284 282
227 220 243 267 281 282 285 286 281 280 273 267 265 272 282 302 324 330 327 323 319 315 311 309 307 305 303 302 300 298 296 295 294 293 292 291 290 289 289 288 287 286 284 282
245 245 229 245 288 281 279 286 294 297 306 305 294 283 302 326 325 326 325 322 320 317 315 313 311 310 308 306 304 302 300 299 297 296 294 293 292 291 290 289 288 286 284 282
328 341 325 336 305 298 304 303 307 320 327 326 321 306 319 330 329 325 323 321 320 319 317 316 315 313 312 310 309 306 304 302 301 299 297 295 294 293 291 290 289 287 285 282
342 357 356 337 322 307 303 300 304 315 327 331 327 327 327 328 328 325 322 321 321 321 320 318 317 316 315 313 311 309 307 306 304 301 299 296 295 294 293 291 289 287 285 283
328 329 337 341 336 323 317 305 305 309 320 330 326 322 322 325 326 326 325 324 324 323 322 321 320 319 317 315 313 312 310 309 307 304 301 298 297 295 293 291 289 287 285 284
306 312 318 297 304 314 314 309 309 306 304 318 322 314 317 321 325 328 327 327 326 325 324 323 322 321 319 317 316 314 313 312 310 307 304 301 299 298 296 294 291 289 286 283
302 297 286 275 272 303 319 317 317 317 319 325 320 309 315 318 325 327 327 327 326 325 325 325 324 323 321 319 318 317 316 314 312 309 306 304 302 300 297 295 293 291 288 284
309 304 309 321 339 0 340 331 327 324 327 323 314 305 308 318 325 326 327 328 327 327 327 327 326 325 323 321 320 319 317 315 313 310 308 306 304 302 300 298 296 293 290 286
310 305 311 332 343 341 325 324 325 323 320 312 306 307 312 322 326 327 329 330 330 329 329 328 328 326 325 323 322 320 318 317 315 313 311 308 307 305 302 300 297 294 290 286
311 304 298 301 309 314 312 315 317 317 319 316 314 313 319 327 328 329 331 332 331 331 330 330 329 328 326 324 323 322 321 319 318 316 314 313 310 308 305 303 300 297 293 288
312 308 303 302 304 317 316 314 317 319 320 320 319 319 324 328 328 329 332 333 333 332 332 332 331 330 328 326 325 324 323 322 320 319 317 316 314 312 310 307 304 300 296 292
313 316 316 319 321 325 310 311 314 318 319 320 320 323 326 329 329 331 334 335 335 335 335 334 333 331 330 328 327 326 325 324 323 322 321 319 317 316 315 312 308 304 300 295
317 317 315 312 317 312 305 311 314 316 317 320 322 324 328 332 332 333 336 338 338 337 336 335 334 332 331 330 329 329 328 327 326 325 324 323 322 321 319 315 311 307 303 299
321 319 314 308 304 306 303 310 315 316 316 322 324 327 330 333 333 334 337 338 338 337 336 335 334 333 332 331 331 330 330 329 329 328 327 326 325 324 322 319 315 312 307 303
314 314 314 315 310 299 295 309 317 318 319 328 327 330 331 332 334 335 336 337 338 337 336 335 335 333 333 333 333 332 332 332 331 331 330 330 330 328 326 324 321 318 314 309
309 316 316 313 312 295 300 308 313 316 320 323 325 328 330 333 335 337 338 338 338 338 337 337 336 335 334 334 334 334 333 334 334 334 334 334 334 333 331 329 327 323 320 314
298 299 299 300 296 291 305 306 311 314 316 319 322 326 331 333 336 338 339 339 340 339 338 338 337 336 335 335 336 336 336 336 336 336 336 336 337 336 335 334 332 329 325 321
290 292 292 293 295 299 302 306 310 312 315 318 322 327 331 334 337 338 339 340 341 341 340 339 339 338 337 337 337 338 338 338 339 339 339 339 339 339 339 338 337 335 333 329
285 292 294 295 297 301 304 307 310 313 316 320 324 328 332 335 337 339 340 341 341 342 341 341 340 340 339 339 339 340 340 340 342 343 343 343 343 343 344 344 342 340 339 338
284 293 297 298 300 304 307 310 312 314 317 321 325 328 332 335 337 339 341 342 342 343 343 343 342 342 341 341 342 342 342 343 345 346 347 347 348 347 348 348 348 346 345 343
285 289 295 299 303 305 308 311 312 314 317 321 325 328 331 335 337 339 340 342 343 343 344 344 344 344 344 344 344 345 346 347 348 351 352 352 352 352 352 353 353 353 351 349